EA3CD Weather Reports


Display with metric or nautical units.
time (UTC)temp
F
wind
direction
speed
MPH
gust
MPH
rain 1hr
in
rain 24hr
in
rain mn
in
humidity
%
barometer
mb
20260502123600 69 104 4.0 13.0 0.00 0.00 0.00 94 1018.5
20260502123300 70 97 9.0 13.0 0.00 0.00 0.00 95 1018.5
20260502122959 68 93 5.0 13.0 0.00 0.00 0.00 95 1018.5
20260502122400 69 92 9.0 13.0 0.00 0.00 0.00 95 1018.5
20260502122100 69 90 10.0 13.0 0.00 0.00 0.00 95 1018.5
20260502121800 69 91 13.0 13.0 0.00 0.00 0.00 95 1018.5
20260502121459 68 82 8.0 13.0 0.00 0.00 0.00 96 1018.5
20260502121200 67 67 13.0 13.0 0.00 0.00 0.00 96 1018.5
20260502120559 67 85 4.0 11.0 0.00 0.00 0.00 93 1018.5
20260502115700 68 105 9.0 10.0 0.00 0.00 0.00 92 1018.5
20260502115059 67 97 9.0 12.0 0.00 0.00 0.00 89 1018.5
20260502114459 67 103 12.0 12.0 0.00 0.00 0.00 90 1018.5
20260502114200 67 116 8.0 10.0 0.00 0.00 0.00 90 1018.5
20260502113900 67 109 3.0 10.0 0.00 0.00 0.00 88 1018.5
20260502113600 67 118 10.0 10.0 0.00 0.00 0.00 83 1018.5
20260502113300 68 113 9.0 10.0 0.00 0.00 0.00 85 1018.5
20260502113000 68 97 4.0 10.0 0.00 0.00 0.00 84 1018.5
20260502112659 69 91 4.0 9.0 0.00 0.00 0.00 81 1018.5
20260502112400 69 123 6.0 12.0 0.00 0.00 0.00 79 1018.5
20260502112100 69 132 9.0 12.0 0.00 0.00 0.00 75 1018.5
20260502111759 69 119 8.0 12.0 0.00 0.00 0.00 75 1018.5
20260502111459 69 81 12.0 12.0 0.00 0.00 0.00 76 1018.5
20260502110900 69 49 9.0 9.0 0.00 0.00 0.00 75 1018.5
20260502110600 69 65 9.0 9.0 0.00 0.00 0.00 71 1018.5
20260502110000 69 92 6.0 12.0 0.00 0.00 0.00 70 1018.5
20260502105700 69 83 6.0 12.0 0.00 0.00 0.00 67 1018.5
20260502105359 69 83 6.0 12.0 0.00 0.00 0.00 69 1018.5
20260502105059 69 86 9.0 10.0 0.00 0.00 0.00 72 1018.5
20260502104500 69 118 4.0 6.0 0.00 0.00 0.00 74 1018.5
20260502104159 69 116 6.0 6.0 0.00 0.00 0.00 80 1018.5
20260502103900 69 112 4.0 6.0 0.00 0.00 0.00 77 1018.5
20260502103559 69 108 6.0 8.0 0.00 0.00 0.00 76 1018.5
20260502103259 69 122 6.0 8.0 0.00 0.00 0.00 72 1018.5
20260502103000 69 122 3.0 9.0 0.00 0.00 0.00 71 1018.5
20260502102100 69 113 2.0 8.0 0.00 0.00 0.00 58 1018.5
20260502101800 69 100 5.0 7.0 0.00 0.00 0.00 51 1018.5
20260502101501 69 95 3.0 7.0 0.00 0.00 0.00 51 1018.5
20260502101200 70 96 5.0 6.0 0.00 0.00 0.00 48 1018.5
20260502100859 70 105 3.0 5.0 0.00 0.00 0.00 50 1018.5
20260502100600 70 101 1.0 6.0 0.00 0.00 0.00 51 1018.5
20260502100259 70 91 5.0 9.0 0.00 0.00 0.00 50 1018.5
20260502091500 70 91 7.0 9.0 0.00 0.00 0.00 64 1018.5
20260502091200 70 92 8.0 9.0 0.00 0.00 0.00 63 1018.5
20260502090900 69 97 9.0 9.0 0.00 0.00 0.00 68 1018.5
20260502090559 69 95 5.0 8.0 0.00 0.00 0.00 69 1018.5
20260502090300 69 95 4.0 8.0 0.00 0.00 0.00 70 1018.5
20260502071200 66 86 6.0 6.0 0.00 0.00 0.00 94 1018.5
20260502070900 66 99 2.0 5.0 0.00 0.00 0.00 95 1018.5
20260502070600 66 95 3.0 8.0 0.00 0.00 0.00 95 1018.5
20260502070259 66 93 5.0 8.0 0.00 0.00 0.00 95 1018.5
20260502070000 65 92 2.0 8.0 0.00 0.00 0.00 95 1018.5
20260502065701 65 88 8.0 8.0 0.00 0.00 0.00 96 1018.5
20260502065401 65 82 5.0 8.0 0.00 0.00 0.00 96 1018.5
20260502065100 65 82 2.0 7.0 0.00 0.00 0.00 97 1018.5
20260502064501 65 75 5.0 7.0 0.00 0.00 0.00 97 1018.5
20260502064200 65 69 7.0 7.0 0.00 0.00 0.00 97 1018.5
20260502063300 65 83 1.0 6.0 0.00 0.00 0.00 97 1018.5
20260502062700 65 87 6.0 9.0 0.00 0.00 0.00 98 1018.5
20260502062401 65 90 4.0 9.0 0.00 0.00 0.00 98 1018.5
20260502062101 65 95 9.0 9.0 0.00 0.00 0.00 98 1018.5
20260502061200 64 77 8.0 9.0 0.00 0.00 0.00 98 1018.5
20260502060901 64 67 4.0 4.0 0.00 0.00 0.00 98 1018.5
20260502060600 64 79 2.0 4.0 0.00 0.00 0.00 98 1018.5
20260502060300 64 83 2.0 4.0 0.00 0.00 0.00 98 1018.5
20260502060001 64 82 3.0 4.0 0.00 0.00 0.00 98 1018.5
20260502055701 64 73 4.0 6.0 0.00 0.00 0.00 98 1018.5
20260502055400 64 67 3.0 6.0 0.00 0.00 0.00 98 1018.5
20260502055100 64 61 4.0 6.0 0.00 0.00 0.00 98 1018.5
20260502054801 64 54 6.0 6.0 0.00 0.00 0.00 98 1018.5
20260502054500 64 50 3.0 4.0 0.00 0.00 0.00 98 1018.5
20260502053900 64 53 4.0 4.0 0.00 0.00 0.00 98 1018.5
20260502053300 64 59 2.0 4.0 0.00 0.00 0.00 98 1018.5
20260502052701 63 63 2.0 6.0 0.00 0.00 0.00 98 1018.5
20260502052400 63 59 3.0 7.0 0.00 0.00 0.00 98 1018.5
20260502051201 63 67 4.0 6.0 0.00 0.00 0.00 98 1018.5
20260502050901 63 61 3.0 6.0 0.00 0.00 0.00 98 1018.5
20260502050600 63 71 6.0 6.0 0.00 0.00 0.00 98 1018.5
20260502050000 63 78 3.0 9.0 0.00 0.00 0.00 98 1018.5
20260502045701 63 72 4.0 9.0 0.00 0.00 0.00 98 1018.5
20260502045400 63 75 4.0 9.0 0.00 0.00 0.00 98 1018.5
20260502044801 63 65 5.0 8.0 0.00 0.00 0.00 98 1018.5
20260502044501 63 74 8.0 8.0 0.00 0.00 0.00 98 1018.5
20260502043901 63 80 5.0 6.0 0.00 0.00 0.00 98 1018.5
20260502043601 63 84 4.0 8.0 0.00 0.00 0.00 98 1018.5
20260502043301 63 77 6.0 8.0 0.00 0.00 0.00 98 1018.5
20260502043001 63 69 4.0 8.0 0.00 0.00 0.00 98 1018.5
20260502042401 63 63 4.0 7.0 0.00 0.00 0.00 98 1018.5
20260502042101 63 66 7.0 9.0 0.00 0.00 0.00 98 1018.5
20260502041801 63 67 4.0 9.0 0.00 0.00 0.00 98 1018.5
20260502041501 64 61 6.0 9.0 0.00 0.00 0.00 98 1018.5
20260502041201 64 59 4.0 6.0 0.00 0.00 0.00 98 1018.5
20260502040901 64 60 6.0 10.0 0.00 0.00 0.00 98 1018.5
20260502040600 64 72 4.0 10.0 0.00 0.00 0.00 98 1018.5
20260502040301 64 69 4.0 10.0 0.00 0.00 0.00 98 1018.5
20260502040001 64 73 4.0 8.0 0.00 0.00 0.00 98 1018.5
20260502035101 64 73 6.0 6.0 0.00 0.00 0.00 98 1018.5
20260502034801 64 80 1.0 6.0 0.00 0.00 0.00 98 1018.5
20260502034502 64 85 3.0 6.0 0.00 0.00 0.00 98 1018.5
20260502034201 64 76 6.0 6.0 0.00 0.00 0.00 98 1018.5
20260502033901 64 71 3.0 6.0 0.00 0.00 0.00 98 1018.5
20260502033601 64 79 4.0 10.0 0.00 0.00 0.00 98 1018.5
20260502033300 64 82 5.0 10.0 0.00 0.00 0.00 98 1018.5
20260502033001 64 88 6.0 10.0 0.00 0.00 0.00 98 1018.5
20260502032701 64 84 10.0 10.0 0.00 0.00 0.00 98 1018.5
20260502032101 64 81 6.0 9.0 0.00 0.00 0.00 98 1018.5
20260502031801 64 79 5.0 9.0 0.00 0.00 0.00 98 1018.5
20260502031501 63 79 6.0 9.0 0.00 0.00 0.00 98 1018.5
20260502031201 63 78 3.0 6.0 0.00 0.00 0.00 98 1018.5
20260502030901 63 86 6.0 9.0 0.00 0.00 0.00 98 1018.5
20260502030601 63 90 6.0 9.0 0.00 0.00 0.00 98 1018.5
20260502030002 63 84 4.0 6.0 0.00 0.00 0.00 98 1018.5
20260502025702 63 80 5.0 6.0 0.00 0.00 0.00 98 1018.5
20260502025401 64 76 4.0 6.0 0.00 0.00 0.00 98 1018.5
20260502025101 64 79 5.0 9.0 0.00 0.00 0.00 98 1018.5
20260502024802 64 90 3.0 9.0 0.00 0.00 0.00 98 1018.5
20260502024501 64 93 2.0 9.0 0.00 0.00 0.00 98 1018.5
20260502024202 64 90 9.0 9.0 0.00 0.00 0.00 98 1018.5
20260502023901 64 86 5.0 6.0 0.00 0.00 0.00 98 1018.5
20260502023601 64 82 4.0 6.0 0.00 0.00 0.00 98 1018.5
20260502023301 64 85 5.0 8.0 0.00 0.00 0.00 98 1018.5
20260502023002 64 80 6.0 8.0 0.00 0.00 0.00 98 1018.5
20260502022701 64 82 4.0 8.0 0.00 0.00 0.00 98 1018.5
20260502022402 64 81 8.0 8.0 0.00 0.00 0.00 98 1018.5
20260502022101 64 79 4.0 8.0 0.00 0.00 0.00 98 1018.5
20260502021802 64 78 6.0 8.0 0.00 0.00 0.00 98 1018.5
20260502021501 64 76 5.0 8.0 0.00 0.00 0.00 98 1018.5
20260502021202 64 85 6.0 9.0 0.00 0.00 0.00 98 1018.5
20260502020902 64 80 4.0 9.0 0.00 0.00 0.00 98 1018.5
20260502020601 64 86 5.0 9.0 0.00 0.00 0.00 98 1018.5
20260502015701 64 99 3.0 8.0 0.00 0.00 0.00 98 1018.5
20260502014802 64 91 1.0 6.0 0.00 0.00 0.00 98 1018.5
20260502014502 64 94 6.0 6.0 0.00 0.00 0.00 98 1018.5
20260502014201 64 82 6.0 7.0 0.00 0.00 0.00 98 1018.5
20260502013902 64 77 5.0 7.0 0.00 0.00 0.00 98 1018.5
20260502013602 64 74 6.0 7.0 0.00 0.00 0.00 98 1018.5
20260502013301 64 80 3.0 6.0 0.00 0.00 0.00 98 1018.5
20260502013002 64 80 6.0 6.0 0.00 0.00 0.00 98 1018.5
20260502012402 64 88 3.0 6.0 0.00 0.00 0.00 98 1018.5
20260502011502 64 80 4.0 8.0 0.00 0.00 0.00 98 1018.5
20260502011202 64 84 6.0 8.0 0.00 0.00 0.00 98 1018.5
20260502010903 64 76 5.0 8.0 0.00 0.00 0.00 98 1018.5
20260502010602 64 85 6.0 13.0 0.00 0.00 0.00 98 1018.5
20260502010302 64 81 6.0 13.0 0.00 0.00 0.00 98 1018.5
20260502010001 64 84 6.0 13.0 0.00 0.00 0.00 98 1018.5
20260502005702 64 82 6.0 8.0 0.00 0.00 0.00 98 1018.5
20260502005402 64 83 3.0 8.0 0.00 0.00 0.00 98 1018.5
20260502005103 64 77 5.0 8.0 0.00 0.00 0.00 98 1018.5
20260502004802 64 78 3.0 8.0 0.00 0.00 0.00 98 1018.5
20260502004502 64 74 5.0 6.0 0.00 0.00 0.00 98 1018.5
20260502004202 64 78 3.0 6.0 0.00 0.00 0.00 98 1018.5
20260502003902 64 82 4.0 6.0 0.00 0.00 0.00 98 1018.5
20260502003602 64 82 6.0 7.0 0.00 0.00 0.00 98 1018.5
20260502003002 64 78 5.0 7.0 0.00 0.00 0.00 98 1019.5
20260502002702 64 75 7.0 7.0 0.00 0.00 0.00 98 1019.5
20260502002402 64 66 2.0 5.0 0.00 0.00 0.00 98 1019.5
20260502002101 64 70 2.0 5.0 0.00 0.00 0.00 98 1019.5
20260502001502 64 73 4.0 5.0 0.00 0.00 0.00 98 1019.5
20260502001202 64 74 3.0 6.0 0.00 0.00 0.00 98 1019.5
20260502000902 64 76 3.0 6.0 0.00 0.00 0.00 98 1019.5
20260502000602 64 76 5.0 6.0 0.00 0.00 0.00 98 1019.5
20260502000303 64 71 4.0 5.0 0.00 0.00 0.00 98 1019.5
20260502000002 64 73 3.0 6.0 0.00 0.00 0.00 98 1019.5
20260501235703 64 81 4.0 6.0 0.00 0.00 0.00 98 1019.5
20260501235102 64 85 6.0 6.0 0.00 0.00 0.00 98 1019.5
20260501234802 64 76 6.0 6.0 0.00 0.00 0.00 98 1019.5
20260501234503 64 78 5.0 8.0 0.00 0.00 0.00 98 1019.5
20260501234203 64 79 6.0 8.0 0.00 0.00 0.00 98 1019.5
20260501233902 64 80 6.0 8.0 0.00 0.00 0.00 98 1019.5
20260501233602 64 83 8.0 8.0 0.00 0.00 0.00 98 1019.5
20260501233302 64 85 3.0 4.0 0.00 0.00 0.00 98 1019.5
20260501233002 64 84 4.0 5.0 0.00 0.00 0.00 98 1019.5
20260501232703 64 87 3.0 5.0 0.00 0.00 0.00 98 1019.5
20260501232402 64 81 3.0 5.0 0.00 0.00 0.00 98 1019.5
20260501231802 64 85 3.0 10.0 0.00 0.00 0.00 98 1019.5
20260501231503 64 97 4.0 10.0 0.00 0.00 0.00 98 1019.5
20260501231203 64 102 10.0 10.0 0.00 0.00 0.00 98 1019.5
20260501230902 64 93 6.0 7.0 0.00 0.00 0.00 98 1020.5
20260501230603 64 90 7.0 7.0 0.00 0.00 0.00 98 1020.5
20260501230002 64 90 6.0 6.0 0.00 0.00 0.00 98 1020.5
20260501225702 64 89 2.0 5.0 0.00 0.00 0.00 98 1020.5
20260501225403 64 82 5.0 5.0 0.00 0.00 0.00 98 1020.5
20260501225102 64 77 4.0 4.0 0.00 0.00 0.00 98 1020.5
20260501224803 64 74 3.0 4.0 0.00 0.00 0.00 98 1020.5
20260501224503 64 58 3.0 3.0 0.00 0.00 0.00 98 1020.5
20260501224203 64 62 2.0 2.0 0.00 0.00 0.00 98 1020.5
20260501223904 64 63 1.0 2.0 0.00 0.00 0.00 98 1020.5
20260501223603 64 75 1.0 3.0 0.00 0.00 0.00 98 1020.5
20260501223303 64 81 1.0 3.0 0.00 0.00 0.00 98 1020.5
20260501223002 64 72 2.0 3.0 0.00 0.00 0.00 98 1019.5
20260501222403 64 59 1.0 3.0 0.00 0.00 0.00 98 1019.5
20260501222102 64 51 3.0 3.0 0.00 0.00 0.00 98 1019.5
20260501221803 64 30 0.0 4.0 0.00 0.00 0.00 98 1019.5
20260501221203 64 37 2.0 4.0 0.00 0.00 0.00 98 1019.5
20260501220902 64 41 4.0 4.0 0.00 0.00 0.00 98 1019.5
20260501220603 64 46 4.0 4.0 0.00 0.00 0.00 98 1019.5
20260501220303 64 46 3.0 4.0 0.00 0.00 0.00 98 1019.5
20260501215703 64 50 4.0 4.0 0.00 0.00 0.00 98 1019.5
20260501215403 64 52 2.0 4.0 0.00 0.00 0.00 98 1019.5
20260501214803 64 61 2.0 5.0 0.00 0.00 0.00 98 1019.5
20260501214504 64 61 2.0 5.0 0.00 0.00 0.00 98 1019.5
20260501214203 64 63 2.0 5.0 0.00 0.00 0.00 98 1019.5
20260501213903 64 54 3.0 4.0 0.00 0.00 0.00 98 1019.5
20260501213303 64 70 2.0 4.0 0.00 0.00 0.00 98 1019.5
20260501213003 64 71 3.0 4.0 0.00 0.00 0.00 98 1019.5
20260501212703 64 64 3.0 4.0 0.00 0.00 0.00 98 1019.5
20260501212403 64 56 4.0 5.0 0.00 0.00 0.00 98 1019.5
20260501212103 64 53 2.0 5.0 0.00 0.00 0.00 98 1019.5
20260501211503 64 55 2.0 5.0 0.00 0.00 0.00 98 1019.5
20260501211203 64 49 1.0 4.0 0.00 0.00 0.00 98 1019.5
20260501210904 64 46 3.0 7.0 0.00 0.00 0.00 98 1019.5
20260501210603 64 49 4.0 7.0 0.00 0.00 0.00 98 1019.5
20260501210302 64 48 4.0 7.0 0.00 0.00 0.00 98 1019.5
20260501210004 64 54 3.0 7.0 0.00 0.00 0.00 98 1019.5
20260501205704 64 53 3.0 7.0 0.00 0.00 0.00 98 1019.5
20260501205403 64 50 7.0 7.0 0.00 0.00 0.00 98 1019.5
20260501205103 64 51 3.0 5.0 0.00 0.00 0.00 98 1019.5
20260501204803 64 50 5.0 6.0 0.00 0.00 0.00 98 1019.5
20260501204504 64 54 3.0 6.0 0.00 0.00 0.00 98 1019.5
20260501204203 64 53 5.0 6.0 0.00 0.00 0.00 98 1019.5
20260501203904 64 58 6.0 6.0 0.00 0.00 0.00 98 1019.5
20260501203603 64 60 6.0 6.0 0.00 0.00 0.00 98 1019.5
20260501203304 64 58 3.0 6.0 0.00 0.00 0.00 98 1019.5
20260501203003 64 56 5.0 7.0 0.00 0.00 0.00 98 1019.5
20260501202704 64 54 3.0 7.0 0.00 0.00 0.00 98 1019.5
20260501202103 64 56 6.0 6.0 0.00 0.00 0.00 98 1019.5
20260501201803 64 59 3.0 6.0 0.00 0.00 0.00 98 1019.5
20260501201503 64 55 4.0 7.0 0.00 0.00 0.00 98 1019.5
20260501201204 64 60 6.0 7.0 0.00 0.00 0.00 98 1019.5
20260501200903 64 67 6.0 9.0 0.00 0.00 0.00 98 1019.5
20260501200604 64 75 5.0 9.0 0.00 0.00 0.00 98 1019.5
20260501200003 64 80 7.0 7.0 0.00 0.00 0.00 98 1019.5
20260501195704 64 70 7.0 7.0 0.00 0.00 0.00 98 1019.5
20260501195104 64 64 5.0 7.0 0.00 0.00 0.00 98 1019.5
20260501194803 64 79 3.0 6.0 0.00 0.00 0.00 98 1019.5
20260501194503 64 83 2.0 6.0 0.00 0.00 0.00 98 1019.5
20260501194204 64 79 4.0 8.0 0.00 0.00 0.00 98 1019.5
20260501193903 64 98 6.0 10.0 0.00 0.00 0.00 98 1019.5
20260501193004 64 79 4.0 9.0 0.00 0.00 0.00 98 1019.5
20260501192703 64 80 3.0 10.0 0.00 0.00 0.00 98 1019.5
20260501192404 64 91 6.0 10.0 0.00 0.00 0.00 98 1019.5
20260501192104 64 90 9.0 12.0 0.00 0.00 0.00 98 1019.5
20260501191810 64 86 10.0 12.0 0.00 0.00 0.00 98 1019.5
20260501191510 64 85 6.0 12.0 0.00 0.00 0.00 98 1018.5
20260501191209 64 84 6.0 10.0 0.00 0.00 0.00 98 1018.5
20260501190310 64 83 4.0 10.0 0.00 0.00 0.00 98 1018.5
20260501190010 64 84 6.0 10.0 0.00 0.00 0.00 98 1018.5
20260501185709 64 84 6.0 10.0 0.00 0.00 0.00 98 1018.5
20260501185410 64 92 10.0 10.0 0.00 0.00 0.00 98 1018.5
20260501185109 64 88 6.0 10.0 0.00 0.00 0.00 98 1018.5
20260501184810 64 85 6.0 10.0 0.00 0.00 0.00 98 1018.5
20260501184509 64 83 8.0 13.0 0.00 0.00 0.00 98 1018.5
20260501184210 64 81 3.0 13.0 0.00 0.00 0.00 98 1018.5
20260501183910 64 84 8.0 13.0 0.00 0.00 0.00 98 1018.5
20260501183609 64 85 10.0 12.0 0.00 0.00 0.00 98 1018.5
20260501183309 64 90 7.0 12.0 0.00 0.00 0.00 98 1018.5
20260501182710 65 95 8.0 13.0 0.00 0.00 0.00 98 1018.5
20260501182409 65 99 9.0 13.0 0.00 0.00 0.00 98 1018.5
20260501182110 65 96 13.0 13.0 0.00 0.00 0.00 98 1018.5
20260501181810 65 101 6.0 10.0 0.00 0.00 0.00 98 1018.5
20260501181509 65 110 10.0 10.0 0.00 0.00 0.00 98 1018.5
20260501181209 65 108 6.0 12.0 0.00 0.00 0.00 98 1018.5
20260501180609 65 96 4.0 12.0 0.00 0.00 0.00 98 1018.5
20260501180310 65 99 6.0 8.0 0.00 0.00 0.00 98 1018.5
20260501175710 66 95 2.0 9.0 0.00 0.00 0.00 98 1018.5
20260501175409 66 92 6.0 9.0 0.00 0.00 0.00 98 1018.5
20260501175110 66 90 9.0 13.0 0.00 0.00 0.00 98 1018.5
20260501174809 66 87 3.0 13.0 0.00 0.00 0.00 98 1018.5
20260501174510 65 85 8.0 13.0 0.00 0.00 0.00 98 1018.5
20260501174210 66 84 4.0 11.0 0.00 0.00 0.00 98 1018.5
20260501173009 66 107 7.0 19.0 0.00 0.00 0.00 98 1018.5
20260501172709 66 94 9.0 13.0 0.00 0.00 0.00 98 1018.5
20260501171810 66 113 9.0 13.0 0.00 0.00 0.00 96 1018.5
20260501171509 67 106 13.0 13.0 0.00 0.00 0.00 96 1018.5
20260501170910 67 106 8.0 15.0 0.00 0.00 0.00 93 1018.5
20260501170609 67 99 8.0 15.0 0.00 0.00 0.00 92 1018.5
20260501170310 67 98 10.0 14.0 0.00 0.00 0.00 92 1018.5
20260501170009 67 94 4.0 14.0 0.00 0.00 0.00 91 1018.5
20260501165710 67 100 8.0 13.0 0.00 0.00 0.00 90 1018.5
20260501165410 67 100 9.0 11.0 0.00 0.00 0.00 89 1018.5
20260501164809 67 96 9.0 13.0 0.00 0.00 0.00 88 1018.5
20260501164509 68 97 10.0 13.0 0.00 0.00 0.00 87 1017.5
20260501164210 68 105 5.0 13.0 0.00 0.00 0.00 87 1017.5
20260501163910 68 100 12.0 13.0 0.00 0.00 0.00 85 1017.5
20260501163610 68 104 8.0 13.0 0.00 0.00 0.00 85 1017.5
20260501163309 68 102 6.0 15.0 0.00 0.00 0.00 85 1017.5
20260501162409 68 115 9.0 11.0 0.00 0.00 0.00 87 1017.5
20260501162110 68 111 10.0 13.0 0.00 0.00 0.00 86 1017.5
20260501161810 68 103 6.0 13.0 0.00 0.00 0.00 88 1017.5
20260501161509 68 108 8.0 13.0 0.00 0.00 0.00 88 1017.5
20260501161210 68 103 13.0 15.0 0.00 0.00 0.00 89 1017.5
20260501160909 67 104 11.0 15.0 0.00 0.00 0.00 90 1017.5
20260501160609 67 107 6.0 15.0 0.00 0.00 0.00 90 1017.5
20260501160309 67 99 15.0 15.0 0.00 0.00 0.00 90 1017.5
20260501160010 67 96 7.0 15.0 0.00 0.00 0.00 89 1017.5
20260501155709 67 90 9.0 15.0 0.00 0.00 0.00 88 1017.5
20260501155410 68 90 14.0 14.0 0.00 0.00 0.00 88 1017.5
20260501154809 67 97 9.0 20.0 0.00 0.00 0.00 88 1017.5
20260501154209 67 104 13.0 20.0 0.00 0.00 0.00 87 1017.5
20260501153910 68 105 12.0 20.0 0.00 0.00 0.00 85 1017.5
20260501153609 68 90 15.0 20.0 0.00 0.00 0.00 85 1017.5
20260501153310 68 90 20.0 20.0 0.00 0.00 0.00 83 1017.5
20260501153009 68 93 8.0 15.0 0.00 0.00 0.00 83 1017.5
20260501152710 68 99 11.0 15.0 0.00 0.00 0.00 83 1017.5
20260501152409 68 104 14.0 15.0 0.00 0.00 0.00 82 1017.5
20260501152110 68 108 14.0 15.0 0.00 0.00 0.00 81 1017.5
20260501151510 68 115 10.0 17.0 0.00 0.00 0.00 78 1017.5
20260501151209 68 109 11.0 17.0 0.00 0.00 0.00 78 1017.5
20260501150910 68 101 8.0 14.0 0.00 0.00 0.00 77 1017.5
20260501150609 69 99 13.0 15.0 0.00 0.00 0.00 76 1017.5
20260501150310 69 93 13.0 15.0 0.00 0.00 0.00 76 1017.5
20260501150009 69 93 8.0 15.0 0.00 0.00 0.00 75 1017.5
20260501145709 69 90 11.0 14.0 0.00 0.00 0.00 76 1017.5
20260501145410 69 96 9.0 20.0 0.00 0.00 0.00 76 1017.5
20260501144509 69 101 20.0 20.0 0.00 0.00 0.00 76 1017.5
20260501143910 70 89 11.0 20.0 0.00 0.00 0.00 77 1018.5
20260501143610 69 99 13.0 20.0 0.00 0.00 0.00 78 1018.5
20260501143010 69 113 11.0 18.0 0.00 0.00 0.00 80 1018.5
20260501142710 69 107 8.0 18.0 0.00 0.00 0.00 80 1018.5
20260501142410 68 97 8.0 18.0 0.00 0.00 0.00 80 1018.5
20260501142109 69 103 11.0 17.0 0.00 0.00 0.00 78 1018.5
20260501141810 69 102 13.0 18.0 0.00 0.00 0.00 78 1018.5
20260501141510 69 102 16.0 18.0 0.00 0.00 0.00 78 1018.5
20260501140909 69 97 11.0 22.0 0.00 0.00 0.00 77 1018.5
20260501140309 69 89 13.0 20.0 0.00 0.00 0.00 77 1018.5
20260501140010 69 90 10.0 20.0 0.00 0.00 0.00 77 1018.5
20260501135710 69 95 6.0 19.0 0.00 0.00 0.00 77 1018.5
20260501135409 69 104 11.0 19.0 0.00 0.00 0.00 77 1018.5
20260501135109 69 100 7.0 15.0 0.00 0.00 0.00 78 1018.5
20260501134809 69 106 15.0 16.0 0.00 0.00 0.00 78 1018.5